Location: *
(48.8489°N, 2.3218°E)
Time: 15:22:19
(UTC+00:00)

SJ 16-02 - Pass Details

Date: 23 August 2019
Orbit: 605 x 618 km, 75.0° (Epoch: 18 September)

Event Time Altitude Azimuth Distance (km) Brightness Sun altitude
Exits shadow 21:25:33 - 220° (SW) 2,457 4.3 -21.6°
Reaches altitude 10° 21:26:49 10° 224° (SW) 1,969 3.9 -21.7°
Maximum altitude 21:31:02 45° 297° (WNW) 850 2.4 -22.2°
Drops below altitude 10° 21:35:18 10° 11° (N) 1,990 4.5 -22.6°
Sets 21:37:39 0° 18° (NNE) 2,901 5.3 -22.8°
